This demonstration page uses our WeatherBlox Daily Observations layout. Learn more.

Left ArrowRight Arrow

Hourly Observations for December 3, 2020

Temp ( °F °C ) Dew Point ( °F °C ) Humidity (%) Winds ( mph kmh ) Pressure ( in mb ) Visibility ( mi km ) Precip ( " mm )
12:52 am 00:52 Partly Cloudy 26 -3.3 24 -4.4 92 92 N 10 17 30.37 1028 10 16 0.00 0.00
1:52 am 01:52 Clear 23 -5 21 -6.1 92 92 NNE 5 7 30.38 1029 9 14 0.00 0.00
2:52 am 02:52 Clear 23 -5 21 -6.1 92 92 Calm 30.36 1028 8 13 0.00 0.00
3:52 am 03:52 Clear 23 -5 20 -6.7 88 88 S 3 6 30.35 1028 8 13 0.00 0.00
4:52 am 04:52 Clear 20 -6.7 18 -7.8 92 92 NNE 3 6 30.35 1028 9 14 0.00 0.00
5:17 am 05:17 Mostly Clear 22 -5.6 21 -6.1 96 96 NNW 3 6 30.40 1029 9 14 0.00 0.00
5:52 am 05:52 Partly Cloudy with Patchy Fog 22 -5.6 21 -6.1 96 96 NNW 3 6 30.34 1027 7 11 0.00 0.00
6:52 am 06:52 Partly Cloudy with Patchy Fog 22 -5.6 21 -6.1 96 96 Calm 30.34 1027 8 13 0.00 0.00
7:52 am 07:52 Mostly Cloudy with Patchy Fog 23 -5 21 -6.1 92 92 Calm 30.33 1027 7 11 0.00 0.00
8:52 am 08:52 Partly Cloudy with Mist and Fog 27 -2.8 25 -3.9 92 92 Calm 30.33 1027 6 10 0.00 0.00
9:52 am 09:52 Mostly Sunny 31 -0.6 28 -2.2 89 89 Calm 30.31 1026 7 11 0.00 0.00
10:52 am 10:52 Partly Cloudy 36 2.2 27 -2.8 70 70 WSW 3 6 30.28 1026 10 16 0.00 0.00
11:52 am 11:52 Partly Cloudy 40 4.4 27 -2.8 60 60 SSW 6 9 30.24 1024 10 16 0.00 0.00
12:52 pm 12:52 Partly Cloudy 43 6.1 26 -3.3 51 51 WNW 13 20 30.21 1023 10 16 0.00 0.00
1:52 pm 13:52 Partly Cloudy 45 7.2 25 -3.9 46 46 WSW 15 24 30.17 1022 10 16 0.00 0.00
2:52 pm 14:52 Partly Cloudy 47 8.3 23 -5 39 39 W 10 17 30.15 1021 10 16 0.00 0.00
3:52 pm 15:52 Partly Cloudy 45 7.2 21 -6.1 39 39 W 8 13 30.14 1021 10 16 0.00 0.00
4:52 pm 16:52 Partly Cloudy 41 5 20 -6.7 43 43 W 5 7 30.14 1021 10 16 0.00 0.00
5:52 pm 17:52 Partly Cloudy 39 3.9 21 -6.1 48 48 Calm 30.14 1021 10 16 0.00 0.00
6:52 pm 18:52 Partly Cloudy 33 0.6 21 -6.1 61 61 Calm 30.13 1020 10 16 0.00 0.00
7:52 pm 19:52 Partly Cloudy 30 -1.1 21 -6.1 69 69 SSE 5 7 30.12 1020 10 16 0.00 0.00
8:52 pm 20:52 Clear 31 -0.6 21 -6.1 67 67 SE 3 6 30.11 1020 10 16 0.00 0.00
9:52 pm 21:52 Clear 30 -1.1 22 -5.6 72 72 SE 6 9 30.10 1019 10 16 0.00 0.00
10:52 pm 22:52 Clear 29 -1.7 21 -6.1 72 72 SE 6 9 30.09 1019 10 16 0.00 0.00
11:52 pm 23:52 Clear 28 -2.2 21 -6.1 75 75 SSE 7 11 30.08 1019 10 16 0.00 0.00

Powered by AerisWeather